WXM80 ListenWXM80 Stop

You find our weather info also at:

UK Metoffice

WeatherCloud

Weather Underground

Northeastern Weather Network

AWEKAS

Citizen Weather Observer Program (CWOP)

HAMweather, WeatherForYou, PWS Weather


Weather Underground History page Text

Daily Summary for April 9, 2016 Units:  English    Metric   Both
« Previous Day
Next Day »
Daily Weekly Monthly Yearly Custom
  High: Low: Average:
Temperature: 43.6 °F 31.5 °F 39.6 °F
Dew Point: 36.6 °F 25.5 °F 31.6 °F
Humidity: 90 % 59 % 73 %
Wind Speed: 11.9 mph 0.0 mph 3.7 mph
Wind Gust: 18.4 mph - -
Wind:- - SE
Pressure: 29.95 in 29.70 in -
Precipitation: 0.04 in    
Historical Graphs
 
 
Tabular Data for April 9, 2016
Time Temperature Dew Point Pressure Wind Wind Speed Wind Gust Humidity Rainfall Rate (Hourly)
00:00 40.9 °F 28.1 °F 29.76 in North 1.5 mph 3.5 mph 60 % 0.00 in
00:05 40.8 °F 28.4 °F 29.76 in NNE 1.8 mph 3.5 mph 61 % 0.00 in
00:10 40.7 °F 27.9 °F 29.76 in NNW 1.4 mph 3.5 mph 60 % 0.00 in
00:16 40.5 °F 28.1 °F 29.76 in NNW 3.1 mph 4.6 mph 61 % 0.00 in
00:21 40.4 °F 28.0 °F 29.76 in NNW 0.3 mph 2.3 mph 61 % 0.00 in
00:26 40.4 °F 28.0 °F 29.76 in NW 0.3 mph 3.5 mph 61 % 0.00 in
00:31 40.2 °F 27.8 °F 29.76 in NW 1.2 mph 3.5 mph 61 % 0.00 in
00:36 40.2 °F 27.4 °F 29.76 in WNW 0.5 mph 6.9 mph 60 % 0.00 in
00:41 40.1 °F 27.3 °F 29.76 in NW 1.3 mph 3.5 mph 60 % 0.00 in
00:46 40.0 °F 26.8 °F 29.76 in NW 0.7 mph 2.3 mph 59 % 0.00 in
00:51 39.9 °F 26.7 °F 29.76 in Calm     59 % 0.00 in
00:56 39.8 °F 26.6 °F 29.76 in NNW 1.3 mph 4.6 mph 59 % 0.00 in
01:01 39.7 °F 26.9 °F 29.76 in WNW 1.8 mph 3.5 mph 60 % 0.00 in
01:07 39.6 °F 26.8 °F 29.76 in NW 1.9 mph 3.5 mph 60 % 0.00 in
01:12 39.5 °F 27.2 °F 29.76 in NW 1.4 mph 2.3 mph 61 % 0.00 in
01:17 39.4 °F 27.1 °F 29.76 in Calm   2.3 mph 61 % 0.00 in
01:22 39.3 °F 27.0 °F 29.76 in WNW 0.5 mph 2.3 mph 61 % 0.00 in
01:27 39.2 °F 27.3 °F 29.76 in WNW 0.5 mph 2.3 mph 62 % 0.00 in
01:32 39.1 °F 27.6 °F 29.75 in WNW 1.0 mph 3.5 mph 63 % 0.00 in
01:37 38.9 °F 27.4 °F 29.75 in WNW 0.7 mph 2.3 mph 63 % 0.00 in
01:42 38.8 °F 27.7 °F 29.75 in NW 2.9 mph 3.5 mph 64 % 0.00 in
01:52 38.5 °F 27.0 °F 29.75 in NW 0.9 mph 3.5 mph 63 % 0.00 in
01:58 38.4 °F 26.9 °F 29.75 in NW 0.4 mph 3.5 mph 63 % 0.00 in
02:08 38.2 °F 26.7 °F 29.74 in NW 2.9 mph 4.6 mph 63 % 0.00 in
02:13 38.1 °F 26.6 °F 29.74 in Calm     63 % 0.00 in
02:18 38.0 °F 26.5 °F 29.74 in NW 0.8 mph 3.0 mph 63 % 0.00 in
02:23 38.0 °F 26.1 °F 29.74 in NW 0.6 mph 2.3 mph 62 % 0.00 in
02:33 37.9 °F 26.4 °F 29.74 in NNW 0.8 mph 3.5 mph 63 % 0.00 in
02:38 37.8 °F 25.5 °F 29.74 in Calm   3.5 mph 61 % 0.00 in
02:43 37.8 °F 25.5 °F 29.74 in NNW 0.6 mph 2.3 mph 61 % 0.00 in
02:49 37.8 °F 25.9 °F 29.74 in North 0.5 mph 2.3 mph 62 % 0.00 in
02:59 37.7 °F 25.8 °F 29.74 in North 0.6 mph 3.0 mph 62 % 0.00 in
03:04 37.7 °F 25.8 °F 29.74 in NNE 0.3 mph 1.2 mph 62 % 0.00 in
03:09 37.6 °F 25.7 °F 29.73 in North 1.0 mph 2.3 mph 62 % 0.00 in
03:14 37.5 °F 26.0 °F 29.73 in North 0.9 mph 2.3 mph 63 % 0.00 in
03:19 37.4 °F 25.6 °F 29.73 in North 2.1 mph 3.5 mph 62 % 0.00 in
03:24 37.3 °F 25.5 °F 29.73 in North 1.4 mph 2.3 mph 62 % 0.00 in
03:29 37.2 °F 25.8 °F 29.73 in North 2.1 mph 2.3 mph 63 % 0.00 in
03:34 37.2 °F 25.8 °F 29.73 in North 3.1 mph 3.5 mph 63 % 0.00 in
03:40 37.1 °F 26.0 °F 29.74 in North 1.6 mph 2.3 mph 64 % 0.00 in
03:45 37.0 °F 25.9 °F 29.73 in North 2.9 mph 3.5 mph 64 % 0.00 in
03:50 36.9 °F 26.2 °F 29.73 in NNE 0.1 mph 1.2 mph 65 % 0.00 in
03:55 36.8 °F 26.5 °F 29.73 in NNE 1.3 mph 3.5 mph 66 % 0.00 in
04:00 36.8 °F 26.9 °F 29.74 in NNE 0.1 mph 1.2 mph 67 % 0.00 in
04:05 36.6 °F 27.0 °F 29.74 in NNE 0.1 mph   68 % 0.00 in
04:10 36.5 °F 27.3 °F 29.74 in Calm     69 % 0.00 in
04:15 36.3 °F 27.1 °F 29.74 in Calm     69 % 0.00 in
04:20 36.1 °F 27.3 °F 29.74 in Calm     70 % 0.00 in
04:25 35.8 °F 27.0 °F 29.74 in Calm   1.2 mph 70 % 0.00 in
04:31 35.6 °F 27.1 °F 29.74 in NNE 0.2 mph 1.2 mph 71 % 0.00 in
04:36 35.4 °F 26.9 °F 29.74 in NNE 0.1 mph 1.2 mph 71 % 0.00 in
04:41 35.3 °F 26.8 °F 29.75 in Calm     71 % 0.00 in
04:46 35.2 °F 27.1 °F 29.74 in NNE 0.2 mph 1.2 mph 72 % 0.00 in
04:51 35.1 °F 27.0 °F 29.74 in NNE 0.5 mph 1.2 mph 72 % 0.00 in
04:56 34.9 °F 26.8 °F 29.74 in Calm     72 % 0.00 in
05:01 34.8 °F 26.7 °F 29.74 in Calm     72 % 0.00 in
05:06 34.6 °F 26.5 °F 29.74 in Calm     72 % 0.00 in
05:11 34.4 °F 26.3 °F 29.74 in Calm     72 % 0.00 in
05:16 34.3 °F 26.2 °F 29.74 in Calm     72 % 0.00 in
05:22 34.1 °F 26.3 °F 29.74 in Calm     73 % 0.00 in
05:27 33.8 °F 26.4 °F 29.74 in Calm     74 % 0.00 in
05:32 33.6 °F 26.2 °F 29.74 in Calm     74 % 0.00 in
05:37 33.4 °F 26.3 °F 29.74 in Calm     75 % 0.00 in
05:42 33.2 °F 26.5 °F 29.74 in Calm     76 % 0.00 in
05:52 32.7 °F 26.3 °F 29.74 in Calm   1.0 mph 77 % 0.00 in
05:57 32.5 °F 26.4 °F 29.74 in Calm     78 % 0.00 in
06:02 32.4 °F 26.3 °F 29.74 in NNE 0.5 mph 1.2 mph 78 % 0.00 in
06:07 32.2 °F 26.4 °F 29.74 in NNE 0.3 mph 1.0 mph 79 % 0.00 in
06:13 32.0 °F 26.2 °F 29.74 in NNE 0.5 mph 1.2 mph 79 % 0.00 in
06:18 31.9 °F 26.1 °F 29.75 in NNE 0.4 mph 1.2 mph 79 % 0.00 in
06:23 31.8 °F 26.0 °F 29.75 in NNE 0.7 mph 1.2 mph 79 % 0.00 in
06:28 31.7 °F 25.9 °F 29.75 in Calm     79 % 0.00 in
06:33 31.6 °F 25.8 °F 29.75 in Calm     79 % 0.00 in
06:38 31.6 °F 26.1 °F 29.75 in Calm     80 % 0.00 in
06:43 31.5 °F 26.0 °F 29.75 in Calm     80 % 0.00 in
06:48 31.5 °F 26.0 °F 29.75 in Calm     80 % 0.00 in
06:53 31.5 °F 26.0 °F 29.75 in Calm     80 % 0.00 in
06:58 31.5 °F 26.0 °F 29.75 in Calm     80 % 0.00 in
07:04 31.6 °F 26.4 °F 29.75 in Calm     81 % 0.00 in
07:09 31.6 °F 26.4 °F 29.75 in Calm     81 % 0.00 in
07:14 31.8 °F 26.9 °F 29.75 in Calm     82 % 0.00 in
07:19 32.1 °F 27.2 °F 29.75 in Calm     82 % 0.00 in
07:24 32.5 °F 27.9 °F 29.75 in NNE 0.1 mph 2.3 mph 83 % 0.00 in
07:29 33.1 °F 28.8 °F 29.75 in NNE 0.2 mph 1.2 mph 84 % 0.00 in
07:34 33.8 °F 29.2 °F 29.75 in NNE 0.6 mph 1.2 mph 83 % 0.00 in
07:39 34.5 °F 29.9 °F 29.75 in NNE 0.8 mph 2.0 mph 83 % 0.00 in
07:44 35.3 °F 30.7 °F 29.75 in NNE 0.7 mph 2.3 mph 83 % 0.00 in
07:49 36.1 °F 31.1 °F 29.75 in ESE 0.8 mph 3.0 mph 82 % 0.00 in
07:55 37.1 °F 31.5 °F 29.76 in ESE 1.9 mph 3.5 mph 80 % 0.00 in
08:00 38.0 °F 32.1 °F 29.76 in ENE 3.0 mph 6.9 mph 79 % 0.00 in
08:05 38.9 °F 32.3 °F 29.76 in ENE 4.5 mph 9.2 mph 77 % 0.00 in
08:10 39.8 °F 32.5 °F 29.75 in NE 4.9 mph 7.0 mph 75 % 0.00 in
08:15 40.5 °F 32.9 °F 29.75 in East 4.7 mph 8.1 mph 74 % 0.00 in
08:20 41.1 °F 33.4 °F 29.75 in ENE 5.1 mph 9.2 mph 74 % 0.00 in
08:25 41.3 °F 33.6 °F 29.75 in ENE 5.5 mph 9.2 mph 74 % 0.00 in
08:30 41.6 °F 34.3 °F 29.75 in NE 4.4 mph 6.9 mph 75 % 0.00 in
08:35 41.9 °F 34.2 °F 29.75 in NE 6.3 mph 10.4 mph 74 % 0.00 in
08:40 42.0 °F 34.0 °F 29.75 in NE 6.3 mph 11.5 mph 73 % 0.00 in
08:46 42.1 °F 35.1 °F 29.75 in East 5.9 mph 10.4 mph 76 % 0.00 in
08:51 42.3 °F 34.6 °F 29.75 in ENE 7.2 mph 11.5 mph 74 % 0.00 in
08:56 42.5 °F 34.5 °F 29.75 in ENE 6.4 mph 10.4 mph 73 % 0.00 in
09:01 42.6 °F 31.7 °F 29.75 in East 3.8 mph 6.9 mph 65 % 0.00 in
09:06 42.8 °F 31.8 °F 29.74 in East 5.9 mph 6.9 mph 65 % 0.00 in
09:11 43.1 °F 32.5 °F 29.74 in East 4.7 mph 7.0 mph 66 % 0.00 in
09:16 43.2 °F 31.8 °F 29.74 in East 5.0 mph 6.9 mph 64 % 0.00 in
09:21 43.3 °F 31.5 °F 29.74 in East 5.4 mph 8.0 mph 63 % 0.00 in
09:26 43.3 °F 31.9 °F 29.74 in East 5.6 mph 6.9 mph 64 % 0.00 in
09:31 43.3 °F 30.7 °F 29.74 in East 6.8 mph 8.1 mph 61 % 0.00 in
09:37 43.2 °F 31.1 °F 29.73 in ENE 3.5 mph 8.1 mph 62 % 0.00 in
09:42 43.3 °F 32.3 °F 29.73 in ENE 7.0 mph 11.5 mph 65 % 0.00 in
09:47 43.2 °F 32.2 °F 29.73 in ENE 6.5 mph 11.5 mph 65 % 0.00 in
09:52 43.2 °F 32.2 °F 29.73 in ENE 6.0 mph 10.0 mph 65 % 0.00 in
09:57 43.3 °F 31.9 °F 29.73 in NE 9.6 mph 11.5 mph 64 % 0.00 in
10:02 43.3 °F 32.7 °F 29.73 in ENE 6.3 mph 9.2 mph 66 % 0.00 in
10:12 43.0 °F 32.0 °F 29.72 in ENE 7.3 mph 9.2 mph 65 % 0.00 in
10:17 43.1 °F 33.3 °F 29.72 in ENE 7.4 mph 11.5 mph 68 % 0.00 in
10:22 43.3 °F 33.4 °F 29.72 in ENE 8.8 mph 12.7 mph 68 % 0.00 in
10:28 43.5 °F 32.9 °F 29.72 in ENE 8.9 mph 11.5 mph 66 % 0.00 in
10:33 43.6 °F 33.0 °F 29.71 in ENE 9.7 mph 13.0 mph 66 % 0.00 in
10:38 43.4 °F 33.2 °F 29.71 in East 8.6 mph 12.7 mph 67 % 0.00 in
10:43 43.4 °F 33.5 °F 29.71 in ENE 6.9 mph 14.0 mph 68 % 0.00 in
10:48 43.1 °F 32.9 °F 29.70 in ENE 9.5 mph 13.0 mph 67 % 0.00 in
10:53 43.0 °F 33.9 °F 29.70 in East 9.0 mph 13.8 mph 70 % 0.00 in
10:58 42.7 °F 32.9 °F 29.70 in East 8.2 mph 11.5 mph 68 % 0.00 in
11:03 42.6 °F 34.2 °F 29.70 in ENE 10.8 mph 13.8 mph 72 % 0.00 in
11:08 42.4 °F 34.4 °F 29.70 in ENE 7.9 mph 11.5 mph 73 % 0.00 in
11:14 41.9 °F 33.5 °F 29.70 in ENE 11.6 mph 15.0 mph 72 % 0.00 in
11:19 41.6 °F 33.6 °F 29.70 in ENE 9.8 mph 12.7 mph 73 % 0.00 in
11:24 41.6 °F 33.6 °F 29.70 in ENE 9.1 mph 12.7 mph 73 % 0.00 in
11:29 41.7 °F 33.3 °F 29.70 in ENE 9.6 mph 14.0 mph 72 % 0.00 in
11:34 41.8 °F 33.8 °F 29.70 in ENE 7.0 mph 10.4 mph 73 % 0.00 in
11:39 42.0 °F 34.0 °F 29.71 in ENE 8.2 mph 10.4 mph 73 % 0.00 in
11:44 42.0 °F 34.0 °F 29.71 in East 7.1 mph 9.0 mph 73 % 0.00 in
11:49 42.0 °F 34.0 °F 29.71 in East 6.4 mph 9.2 mph 73 % 0.00 in
11:54 42.0 °F 34.0 °F 29.72 in East 8.5 mph 9.0 mph 73 % 0.00 in
11:59 42.0 °F 34.0 °F 29.71 in ENE 5.6 mph 8.1 mph 73 % 0.00 in
12:05 41.9 °F 33.9 °F 29.72 in East 6.5 mph 9.2 mph 73 % 0.00 in
12:10 41.9 °F 33.5 °F 29.71 in East 7.4 mph 9.2 mph 72 % 0.00 in
12:15 41.8 °F 33.8 °F 29.71 in East 8.2 mph 11.5 mph 73 % 0.00 in
12:20 41.8 °F 34.1 °F 29.71 in ENE 6.0 mph 8.1 mph 74 % 0.00 in
12:25 41.8 °F 33.8 °F 29.71 in ENE 5.8 mph 11.0 mph 73 % 0.00 in
12:30 41.8 °F 34.1 °F 29.71 in East 6.4 mph 9.0 mph 74 % 0.00 in
12:35 42.0 °F 34.3 °F 29.70 in ENE 7.2 mph 11.5 mph 74 % 0.00 in
12:40 42.1 °F 34.4 °F 29.70 in ENE 7.3 mph 11.5 mph 74 % 0.00 in
12:45 42.1 °F 34.4 °F 29.70 in ENE 7.3 mph 10.4 mph 74 % 0.00 in
12:50 42.1 °F 34.7 °F 29.70 in ENE 8.5 mph 11.0 mph 75 % 0.00 in
12:56 42.1 °F 34.1 °F 29.70 in ENE 7.4 mph 9.2 mph 73 % 0.00 in
13:01 42.2 °F 34.5 °F 29.70 in NE 7.7 mph 11.5 mph 74 % 0.00 in
13:06 42.3 °F 34.3 °F 29.70 in ENE 8.1 mph 10.4 mph 73 % 0.00 in
13:11 42.3 °F 34.3 °F 29.70 in ENE 8.3 mph 13.0 mph 73 % 0.00 in
13:16 42.4 °F 34.4 °F 29.70 in ENE 6.7 mph 9.0 mph 73 % 0.00 in
13:21 42.4 °F 34.4 °F 29.70 in ENE 6.5 mph 8.1 mph 73 % 0.00 in
13:26 42.4 °F 34.0 °F 29.70 in ENE 6.8 mph 11.0 mph 72 % 0.00 in
13:31 42.5 °F 34.5 °F 29.70 in ENE 6.9 mph 10.4 mph 73 % 0.00 in
13:36 42.6 °F 34.5 °F 29.70 in ENE 7.5 mph 9.2 mph 73 % 0.00 in
13:41 42.6 °F 34.5 °F 29.70 in NE 6.6 mph 10.4 mph 73 % 0.00 in
13:47 42.7 °F 35.0 °F 29.70 in NE 4.4 mph 9.0 mph 74 % 0.00 in
13:52 42.7 °F 34.3 °F 29.70 in ENE 9.8 mph 11.5 mph 72 % 0.00 in
13:57 42.6 °F 34.2 °F 29.70 in NE 4.3 mph 10.4 mph 72 % 0.00 in
14:02 42.5 °F 34.1 °F 29.70 in NE 3.3 mph 6.9 mph 72 % 0.00 in
14:07 42.6 °F 35.2 °F 29.70 in NNE 2.1 mph 3.5 mph 75 % 0.00 in
14:12 42.8 °F 35.1 °F 29.70 in ENE 3.0 mph 6.9 mph 74 % 0.00 in
14:17 42.9 °F 34.8 °F 29.70 in ENE 3.6 mph 8.1 mph 73 % 0.00 in
14:22 42.7 °F 34.6 °F 29.70 in East 3.3 mph 7.0 mph 73 % 0.00 in
14:27 42.4 °F 35.0 °F 29.71 in ENE 4.3 mph 4.6 mph 75 % 0.00 in
14:32 42.2 °F 35.2 °F 29.71 in ENE 2.1 mph 5.8 mph 76 % 0.00 in
14:38 42.0 °F 35.0 °F 29.71 in ENE 2.7 mph 6.9 mph 76 % 0.00 in
14:48 41.7 °F 35.3 °F 29.71 in North 3.4 mph 9.2 mph 78 % 0.00 in
14:53 41.6 °F 35.6 °F 29.71 in NNE 5.3 mph 9.2 mph 79 % 0.00 in
14:58 41.4 °F 35.1 °F 29.71 in NE 3.8 mph 6.9 mph 78 % 0.00 in
15:08 41.2 °F 35.8 °F 29.71 in NNE 6.1 mph 10.0 mph 81 % 0.00 in
15:13 41.0 °F 35.6 °F 29.71 in ENE 3.2 mph 9.2 mph 81 % 0.00 in
15:18 40.6 °F 34.9 °F 29.72 in ENE 4.0 mph 9.2 mph 80 % 0.00 in
15:23 40.4 °F 35.0 °F 29.72 in NE 4.4 mph 8.1 mph 81 % 0.00 in
15:29 40.2 °F 35.4 °F 29.72 in NNE 3.7 mph 6.9 mph 83 % 0.00 in
15:34 40.1 °F 35.7 °F 29.72 in ENE 3.0 mph 4.6 mph 84 % 0.00 in
15:39 40.0 °F 35.6 °F 29.72 in NE 4.1 mph 8.1 mph 84 % 0.00 in
15:44 39.7 °F 35.3 °F 29.72 in ENE 4.3 mph 8.1 mph 84 % 0.01 in
15:49 39.5 °F 35.7 °F 29.73 in ENE 4.6 mph 6.9 mph 86 % 0.01 in
15:59 39.2 °F 35.4 °F 29.72 in NE 2.5 mph 4.6 mph 86 % 0.01 in
16:04 39.2 °F 35.7 °F 29.73 in NE 1.6 mph 4.6 mph 87 % 0.01 in
16:09 39.2 °F 35.7 °F 29.73 in NE 2.7 mph 5.0 mph 87 % 0.01 in
16:14 39.1 °F 35.3 °F 29.73 in NE 1.8 mph 4.6 mph 86 % 0.02 in
16:20 39.1 °F 35.6 °F 29.73 in NE 2.3 mph 5.8 mph 87 % 0.02 in
16:25 39.0 °F 35.5 °F 29.74 in ENE 1.4 mph 4.0 mph 87 % 0.02 in
16:35 39.0 °F 35.7 °F 29.74 in NNE 2.4 mph 4.6 mph 88 % 0.02 in
16:40 38.9 °F 35.9 °F 29.74 in NNE 1.9 mph 4.0 mph 89 % 0.03 in
16:45 38.9 °F 35.9 °F 29.74 in North 3.4 mph 4.0 mph 89 % 0.02 in
16:50 38.9 °F 35.9 °F 29.74 in NNE 2.5 mph 3.5 mph 89 % 0.02 in
16:55 38.9 °F 35.9 °F 29.74 in NE 3.0 mph 6.0 mph 89 % 0.02 in
17:00 38.9 °F 35.9 °F 29.74 in North 2.4 mph 5.8 mph 89 % 0.02 in
17:11 38.9 °F 36.2 °F 29.73 in NNW 4.8 mph 6.0 mph 90 % 0.03 in
17:16 38.9 °F 36.2 °F 29.73 in North 3.4 mph 4.6 mph 90 % 0.02 in
17:21 39.0 °F 36.3 °F 29.74 in NW 5.0 mph 6.9 mph 90 % 0.02 in
17:26 39.0 °F 36.3 °F 29.74 in NNW 4.3 mph 9.2 mph 90 % 0.02 in
17:31 39.0 °F 36.3 °F 29.74 in NNW 2.4 mph 7.0 mph 90 % 0.02 in
17:36 39.0 °F 36.3 °F 29.74 in North 4.2 mph 11.5 mph 90 % 0.02 in
17:41 39.1 °F 36.4 °F 29.74 in NNE 3.4 mph 10.4 mph 90 % 0.01 in
17:46 39.1 °F 36.4 °F 29.74 in NNE 4.4 mph 6.0 mph 90 % 0.01 in
17:51 39.1 °F 36.1 °F 29.74 in NNE 7.1 mph 9.2 mph 89 % 0.01 in
17:56 39.0 °F 36.0 °F 29.74 in NNW 5.1 mph 6.9 mph 89 % 0.01 in
18:02 39.0 °F 36.0 °F 29.75 in NE 3.3 mph 5.0 mph 89 % 0.01 in
18:07 39.1 °F 36.4 °F 29.75 in NNW 5.0 mph 6.0 mph 90 % 0.01 in
18:12 39.1 °F 36.1 °F 29.75 in NNW 2.6 mph 5.0 mph 89 % 0.00 in
18:17 39.1 °F 36.1 °F 29.75 in North 2.5 mph 3.5 mph 89 % 0.00 in
18:22 39.1 °F 36.1 °F 29.75 in NNW 2.8 mph 4.0 mph 89 % 0.00 in
18:27 39.1 °F 36.1 °F 29.75 in NNE 2.0 mph 3.5 mph 89 % 0.00 in
18:32 39.1 °F 36.1 °F 29.75 in NNE 0.9 mph 3.5 mph 89 % 0.00 in
18:37 39.2 °F 36.2 °F 29.75 in NNE 0.2 mph 1.2 mph 89 % 0.00 in
18:42 39.2 °F 36.2 °F 29.75 in North 2.6 mph 3.5 mph 89 % 0.00 in
18:47 39.2 °F 36.2 °F 29.75 in NW 1.1 mph 2.3 mph 89 % 0.00 in
18:53 39.3 °F 36.3 °F 29.76 in Calm   3.5 mph 89 % 0.00 in
18:58 39.3 °F 36.3 °F 29.76 in North 0.5 mph 2.3 mph 89 % 0.00 in
19:03 39.4 °F 36.4 °F 29.76 in Calm   2.3 mph 89 % 0.00 in
19:08 39.4 °F 36.1 °F 29.76 in North 0.6 mph 2.3 mph 88 % 0.00 in
19:13 39.5 °F 36.2 °F 29.76 in North 1.5 mph 3.5 mph 88 % 0.00 in
19:18 39.5 °F 36.2 °F 29.76 in North 0.3 mph 1.2 mph 88 % 0.00 in
19:23 39.6 °F 36.3 °F 29.76 in North 0.3 mph 2.3 mph 88 % 0.00 in
19:28 39.6 °F 36.3 °F 29.77 in WNW 0.8 mph 5.8 mph 88 % 0.00 in
19:33 39.7 °F 36.4 °F 29.77 in WNW 1.2 mph 3.5 mph 88 % 0.00 in
19:38 39.7 °F 36.4 °F 29.77 in WNW 1.7 mph 5.8 mph 88 % 0.00 in
19:44 39.8 °F 36.5 °F 29.78 in West 3.0 mph 4.6 mph 88 % 0.00 in
19:49 39.8 °F 36.2 °F 29.78 in WNW 1.7 mph 3.5 mph 87 % 0.00 in
19:54 39.8 °F 36.5 °F 29.78 in West 0.9 mph 3.5 mph 88 % 0.00 in
19:59 39.9 °F 36.6 °F 29.78 in WSW 4.0 mph 6.9 mph 88 % 0.00 in
20:04 39.9 °F 36.3 °F 29.79 in WSW 3.0 mph 9.2 mph 87 % 0.00 in
20:09 39.9 °F 36.3 °F 29.79 in SW 1.4 mph 5.0 mph 87 % 0.00 in
20:14 40.0 °F 36.4 °F 29.79 in SSW 2.3 mph 6.9 mph 87 % 0.00 in
20:19 40.0 °F 35.9 °F 29.80 in West 3.2 mph 4.6 mph 85 % 0.00 in
20:24 40.1 °F 36.2 °F 29.81 in SW 0.6 mph 5.8 mph 86 % 0.00 in
20:29 40.1 °F 34.7 °F 29.81 in NNW 3.0 mph 5.8 mph 81 % 0.00 in
20:40 40.5 °F 35.4 °F 29.82 in NW 5.4 mph 6.0 mph 82 % 0.00 in
20:45 40.6 °F 34.9 °F 29.82 in WSW 3.5 mph 10.4 mph 80 % 0.00 in
20:50 40.7 °F 35.0 °F 29.82 in NNE 5.3 mph 16.0 mph 80 % 0.00 in
20:55 41.0 °F 34.0 °F 29.82 in NNW 2.7 mph 6.9 mph 76 % 0.00 in
21:00 41.2 °F 33.2 °F 29.82 in NNE 5.1 mph 9.2 mph 73 % 0.00 in
21:05 41.3 °F 32.6 °F 29.83 in North 7.6 mph 11.5 mph 71 % 0.00 in
21:10 41.8 °F 31.6 °F 29.84 in NNE 6.7 mph 11.5 mph 67 % 0.00 in
21:15 42.0 °F 30.7 °F 29.84 in NNE 11.5 mph 18.4 mph 64 % 0.00 in
21:20 42.2 °F 31.6 °F 29.84 in NW 3.7 mph 3.7 mph 66 % 0.00 in
21:26 42.3 °F 31.7 °F 29.85 in NNE 7.0 mph 11.5 mph 66 % 0.00 in
21:31 42.4 °F 32.2 °F 29.85 in North 3.7 mph 8.1 mph 67 % 0.00 in
21:36 42.4 °F 31.5 °F 29.85 in NNE 7.5 mph 11.5 mph 65 % 0.00 in
21:41 42.4 °F 31.1 °F 29.85 in North 9.1 mph 15.0 mph 64 % 0.00 in
21:46 42.5 °F 30.0 °F 29.86 in NNW 6.2 mph 10.0 mph 61 % 0.00 in
21:51 42.7 °F 31.4 °F 29.86 in NNW 9.8 mph 14.0 mph 64 % 0.00 in
21:56 42.8 °F 31.5 °F 29.86 in NNE 6.1 mph 8.1 mph 64 % 0.00 in
22:01 42.8 °F 30.3 °F 29.87 in North 7.8 mph 11.5 mph 61 % 0.00 in
22:06 42.8 °F 29.5 °F 29.87 in NNE 3.9 mph 8.1 mph 59 % 0.00 in
22:11 42.8 °F 29.5 °F 29.88 in North 8.6 mph 17.3 mph 59 % 0.00 in
22:17 42.9 °F 30.4 °F 29.88 in NNE 6.2 mph 15.0 mph 61 % 0.00 in
22:27 42.9 °F 30.8 °F 29.88 in North 4.0 mph 11.5 mph 62 % 0.00 in
22:32 42.9 °F 31.6 °F 29.88 in NNW 5.6 mph 9.2 mph 64 % 0.00 in
22:37 42.8 °F 31.1 °F 29.88 in NNW 5.4 mph 10.4 mph 63 % 0.00 in
22:42 42.8 °F 30.7 °F 29.89 in NNW 6.3 mph 10.4 mph 62 % 0.00 in
22:47 42.7 °F 30.6 °F 29.89 in NNW 4.5 mph 6.9 mph 62 % 0.00 in
22:52 42.6 °F 30.5 °F 29.89 in NNW 5.2 mph 11.5 mph 62 % 0.00 in
22:57 42.5 °F 30.4 °F 29.90 in NW 7.9 mph 17.3 mph 62 % 0.00 in
23:02 42.5 °F 30.8 °F 29.90 in NW 5.6 mph 11.5 mph 63 % 0.00 in
23:08 42.4 °F 30.3 °F 29.90 in NNW 7.8 mph 11.5 mph 62 % 0.00 in
23:13 42.3 °F 30.2 °F 29.91 in NNE 6.8 mph 12.0 mph 62 % 0.00 in
23:18 42.2 °F 29.3 °F 29.91 in NNW 11.9 mph 13.8 mph 60 % 0.00 in
23:23 42.1 °F 29.2 °F 29.92 in NW 8.0 mph 15.0 mph 60 % 0.00 in
23:28 41.9 °F 29.4 °F 29.92 in North 8.3 mph 17.3 mph 61 % 0.00 in
23:33 41.8 °F 29.3 °F 29.92 in NNW 2.0 mph 9.2 mph 61 % 0.00 in
23:38 41.8 °F 30.1 °F 29.93 in NNE 5.7 mph 13.8 mph 63 % 0.00 in
23:43 41.7 °F 28.8 °F 29.93 in NNW 6.8 mph 15.0 mph 60 % 0.00 in
23:48 41.6 °F 28.7 °F 29.94 in North 8.7 mph 15.0 mph 60 % 0.00 in
23:59 41.5 °F 28.6 °F 29.95 in NNW 4.6 mph 12.7 mph 60 % 0.00 in
Crab Meadow Weather
Compliments of Weather Underground - 2.75 mb

Script developed by  Jim McMurry - jmcmurry@mwt.net Adapted for the template by  Wim van der Kuil - Leuven-Template.eu

Hurricanes: In one day a hurricane can release enough energy to supply all of the nation's electrical needs for about six months.